Date String (YYYY-MM-DD hh:mm:ss) UTC,Instrument flags,absolute air pressure of the measurement (hPa),sample flow rate (lpm),inlet stack bypass flow (lpm),air temperature of the measurement (°C),ambient temperature measured by the external sensor (°C),aerosol sample conditioner tube jacket temperature (°C),OPC LED temperature (°C),internal box temperature (°C),relative humidity of the measurement (%),span deviation,mass concentration of particles derived from Lorenz-Mie calculation of OPC scattering (μg/m³),mass concentration of particles derived from Lorenz-Mie calculation of OPC scattering (μg/m³),mass concentration of particles derived from Lorenz-Mie calculation of OPC scattering (μg/m³)
DateTimeUTC,F1_M11,P_M11,Q1_M11,Q2_M11,T1_M11,T2_M11,T3_M11,T4_M11,T5_M11,U1_M11,ZSPAN_M11,X2_M11,X0_M11,X1_M11
2024-05-20 06:00:00,SystemResetWarning,0826.0,4.99,000.00,024.6,024.0,000.0,032.7,026.4,024.1,0000.0,0004.03,0009.47,0003.37
2024-05-20 06:01:00,SystemResetWarning,0826.0,5.00,000.00,024.6,024.1,000.0,032.7,026.5,024.0,0000.0,0004.09,0009.52,0003.42
2024-05-20 06:02:00,SystemResetWarning,0826.0,5.01,000.00,024.7,024.2,000.0,032.8,026.6,024.0,0000.0,0004.17,0009.71,0003.48
2024-05-20 06:03:00,SystemResetWarning,0826.0,5.01,000.00,024.7,024.3,000.0,032.8,026.6,024.1,0000.0,0004.24,0009.81,0003.55
2024-05-20 06:04:00,SystemResetWarning,0826.0,5.00,000.00,024.8,024.3,000.0,032.8,026.7,024.1,0000.0,0004.25,0009.89,0003.56
2024-05-20 06:05:00,SystemResetWarning,0826.1,4.99,000.00,024.9,024.4,000.0,032.8,026.7,024.1,0000.0,0004.21,0009.65,0003.52
2024-05-20 06:06:00,SystemResetWarning,0826.2,5.00,000.00,024.9,024.5,000.0,032.9,026.7,024.2,0000.0,0004.25,0009.36,0003.52
2024-05-20 06:07:00,SystemResetWarning,0826.2,5.00,000.00,024.9,024.5,000.0,032.9,026.8,024.5,0000.0,0004.26,0009.42,0003.52
2024-05-20 06:08:00,SystemResetWarning,0826.2,5.00,000.00,025.0,024.6,000.0,033.0,026.8,025.0,0000.0,0004.25,0009.27,0003.52
2024-05-20 06:09:00,SystemResetWarning,0826.2,5.00,000.00,025.0,024.6,000.0,033.0,026.9,025.2,0000.0,0004.21,0009.18,0003.50
2024-05-20 06:10:00,SystemResetWarning,0826.2,5.01,000.00,025.1,024.6,000.0,033.0,026.9,025.3,0000.0,0004.12,0009.83,0003.43
2024-05-20 06:11:00,SystemResetWarning,0826.2,5.01,000.00,025.1,024.7,000.0,033.1,027.0,025.6,0000.0,0004.06,0010.37,0003.36
2024-05-20 06:12:00,SystemResetWarning,0826.2,4.99,000.00,025.1,024.7,000.0,033.1,027.0,025.5,0000.0,0004.03,0010.81,0003.29
2024-05-20 06:13:00,SystemResetWarning,0826.2,4.99,000.00,025.2,024.7,000.0,033.1,027.0,025.6,0000.0,0004.02,0011.56,0003.23
2024-05-20 06:14:00,SystemResetWarning,0826.2,5.00,000.00,025.2,024.8,000.0,033.2,027.1,025.6,0000.0,0003.99,0011.66,0003.16
2024-05-20 06:15:00,SystemResetWarning,0826.3,5.00,000.00,025.3,024.8,000.0,033.2,027.1,025.5,0000.0,0003.90,0012.37,0003.05
2024-05-20 06:16:00,SystemResetWarning,0826.2,5.00,000.00,025.3,024.8,000.0,033.3,027.2,025.5,0000.0,0003.85,0012.33,0002.92
2024-05-20 06:17:00,SystemResetWarning,0826.3,5.01,000.00,025.3,024.8,000.0,033.3,027.2,025.5,0000.0,0003.80,0012.20,0002.80
2024-05-20 06:18:00,SystemResetWarning,0826.2,4.99,000.00,025.3,024.0,000.0,033.4,026.7,025.7,0000.0,0003.81,0012.53,0002.67
2024-05-20 06:19:00,SystemResetWarning,0826.2,5.00,000.00,024.8,021.8,000.0,033.4,025.5,026.4,0000.0,0003.82,0013.04,0002.56
2024-05-20 06:20:00,SystemResetWarning,0826.2,5.01,000.00,024.5,021.5,000.0,033.4,025.3,026.9,0000.0,0003.78,0013.12,0002.49
2024-05-20 06:21:00,SystemResetWarning,0826.2,5.00,000.00,024.4,021.9,000.0,033.2,025.4,027.1,0000.0,0003.84,0013.30,0002.47
2024-05-20 06:22:00,SystemResetWarning,0826.3,5.00,000.00,024.4,022.3,000.0,033.1,025.6,027.2,0000.0,0003.92,0013.16,0002.47
2024-05-20 06:23:00,SystemResetWarning,0826.3,5.00,000.00,024.4,022.6,000.0,033.0,025.9,027.1,0000.0,0003.90,0013.91,0002.45
2024-05-20 06:24:00,SystemResetWarning,0826.3,4.99,000.00,024.4,022.9,000.0,033.0,026.0,027.1,0000.0,0003.89,0013.68,0002.43
2024-05-20 06:25:00,SystemResetWarning,0826.3,5.00,000.00,024.5,023.2,000.0,032.9,026.2,027.1,0000.0,0003.86,0013.80,0002.43
2024-05-20 06:26:00,SystemResetWarning,0826.3,5.00,000.00,024.5,023.4,000.0,032.9,026.3,027.0,0000.0,0003.96,0013.29,0002.44
2024-05-20 06:27:00,SystemResetWarning,0826.3,5.00,000.00,024.6,023.6,000.0,032.9,026.3,026.9,0000.0,0004.00,0013.31,0002.46
2024-05-20 06:28:00,SystemResetWarning,0826.2,5.00,000.00,024.6,023.8,000.0,032.9,026.4,026.9,0000.0,0004.04,0013.64,0002.45
2024-05-20 06:29:00,SystemResetWarning,0826.2,4.99,000.00,024.7,023.9,000.0,032.9,026.5,026.8,0000.0,0003.99,0013.30,0002.46
2024-05-20 06:30:00,SystemResetWarning,0826.2,5.00,000.00,024.7,024.0,000.0,032.9,026.6,026.7,0000.0,0004.00,0013.92,0002.47
2024-05-20 06:31:00,SystemResetWarning,0826.2,5.00,000.00,024.8,024.1,000.0,032.9,026.6,026.7,0000.0,0004.06,0014.03,0002.47
2024-05-20 06:32:00,SystemResetWarning,0826.2,5.01,000.00,024.8,024.2,000.0,032.9,026.7,026.6,0000.0,0004.01,0013.47,0002.46
2024-05-20 06:33:00,SystemResetWarning,0826.2,5.01,000.00,024.9,024.3,000.0,032.9,026.7,026.5,0000.0,0003.97,0013.34,0002.47
2024-05-20 06:34:00,SystemResetWarning,0826.2,5.00,000.00,024.9,024.4,000.0,033.0,026.8,026.4,0000.0,0003.99,0012.83,0002.49
2024-05-20 06:35:00,SystemResetWarning,0826.2,5.00,000.00,025.0,024.4,000.0,033.0,026.8,026.2,0000.0,0004.02,0012.91,0002.52
2024-05-20 06:36:00,SystemResetWarning,0826.2,5.00,000.00,025.0,024.5,000.0,033.0,026.9,026.1,0000.0,0004.04,0012.76,0002.52
2024-05-20 06:37:00,SystemResetWarning,0826.2,4.99,000.00,025.0,024.5,000.0,033.0,026.9,025.7,0000.0,0004.00,0012.43,0002.53
2024-05-20 06:38:00,SystemResetWarning,0826.2,5.00,000.00,025.1,024.6,000.0,033.1,026.9,025.5,0000.0,0003.97,0011.77,0002.52
2024-05-20 06:39:00,SystemResetWarning,0826.3,5.01,000.00,025.1,024.6,000.0,033.1,027.0,025.4,0000.0,0003.98,0011.75,0002.53
2024-05-20 06:40:00,SystemResetWarning,0826.3,5.01,000.00,025.1,024.7,000.0,033.1,027.0,025.6,0000.0,0003.99,0012.92,0002.57
2024-05-20 06:41:00,SystemResetWarning,0826.4,5.00,000.00,025.2,024.7,000.0,033.2,027.0,025.6,0000.0,0004.00,0013.64,0002.58
2024-05-20 06:42:00,SystemResetWarning,0826.3,4.99,000.00,025.2,024.7,000.0,033.2,027.1,025.5,0000.0,0004.07,0014.37,0002.62
2024-05-20 06:43:00,SystemResetWarning,0826.3,4.99,000.00,025.3,024.7,000.0,033.2,027.1,025.5,0000.0,0004.13,0014.59,0002.64
2024-05-20 06:44:00,SystemResetWarning,0826.2,5.00,000.00,025.1,023.0,000.0,033.3,026.2,025.8,0000.0,0004.13,0014.46,0002.63
2024-05-20 06:45:00,SystemResetWarning,0826.2,5.01,000.00,024.6,021.6,000.0,033.3,025.3,026.6,0000.0,0004.16,0014.50,0002.63
2024-05-20 06:46:00,SystemResetWarning,0826.2,5.01,000.00,024.4,021.6,000.0,033.3,025.2,027.0,0000.0,0004.16,0014.27,0002.64
2024-05-20 06:47:00,SystemResetWarning,0826.2,5.00,000.00,024.3,022.0,000.0,033.1,025.4,027.1,0000.0,0004.23,0014.99,0002.66
2024-05-20 06:48:00,SystemResetWarning,0826.2,5.00,000.00,024.3,022.3,000.0,033.0,025.6,027.1,0000.0,0004.26,0015.05,0002.68
2024-05-20 06:49:00,SystemResetWarning,0826.2,5.00,000.00,024.4,022.7,000.0,032.9,025.9,027.2,0000.0,0004.27,0015.50,0002.69
2024-05-20 06:50:00,SystemResetWarning,0826.2,5.00,000.00,024.4,023.0,000.0,032.9,026.0,027.2,0000.0,0004.28,0015.85,0002.72
2024-05-20 06:51:00,SystemResetWarning,0826.3,5.00,000.00,024.4,023.2,000.0,032.8,026.1,027.1,0000.0,0004.30,0015.55,0002.72
2024-05-20 06:52:00,SystemResetWarning,0826.3,4.99,000.00,024.5,023.4,000.0,032.8,026.2,026.9,0000.0,0004.35,0014.61,0002.74
2024-05-20 06:53:00,SystemResetWarning,0826.2,5.00,000.00,024.5,023.6,000.0,032.8,026.3,026.9,0000.0,0004.30,0014.38,0002.73
2024-05-20 06:54:00,SystemResetWarning,0826.2,5.00,000.00,024.6,023.7,000.0,032.8,026.4,026.7,0000.0,0004.33,0014.85,0002.75
2024-05-20 06:55:00,SystemResetWarning,0826.3,5.00,000.00,024.6,023.9,000.0,032.8,026.5,026.7,0000.0,0004.36,0015.45,0002.76
2024-05-20 06:56:00,SystemResetWarning,0826.3,5.00,000.00,024.6,024.0,000.0,032.8,026.5,026.6,0000.0,0004.33,0015.61,0002.75
2024-05-20 06:57:00,SystemResetWarning,0826.3,5.00,000.00,024.7,024.1,000.0,032.9,026.6,026.6,0000.0,0004.33,0015.67,0002.75
2024-05-20 06:58:00,SystemResetWarning,0826.3,4.99,000.00,024.7,024.2,000.0,032.9,026.6,026.5,0000.0,0004.32,0015.10,0002.74
2024-05-20 06:59:00,SystemResetWarning,0826.3,4.99,000.00,024.8,024.2,000.0,032.9,026.7,026.4,0000.0,0004.34,0015.44,0002.74
